H1 CPF 2 NER 2025 7 18 9 199 01 glonass132 H2 1401201 9132 39620 2025 7 18 0 0 0 2025 7 21 23 45 0 900 1 1 0 0 0 1 H9 10 0 60874 0.00000 0 -21489335.436 -13486926.778 -2821394.250 10 0 60874 900.00000 0 -21094092.241 -13063156.720 -5994509.811 10 0 60874 1800.00000 0 -20316492.544 -12519077.266 -9051402.595 10 0 60874 2700.00000 0 -19156213.601 -11913129.270 -11932761.539 10 0 60874 3600.00000 0 -17626405.770 -11303845.813 -14582645.105 10 0 60874 4500.00000 0 -15753341.652 -10747221.355 -16949566.501 10 0 60874 5400.00000 0 -13575528.891 -10294199.255 -18987494.931 10 0 60874 6300.00000 0 -11142321.909 -9988383.771 -20656753.384 10 0 60874 7200.00000 0 -8512088.831 -9864073.424 -21924795.374 10 0 60874 8100.00000 0 -5750008.371 -9944699.326 -22766845.325 10 0 60874 9000.00000 0 -2925587.049 -10241735.241 -23166389.795 10 0 60874 9900.00000 0 -109998.941 -10754126.451 -23115509.431 10 0 60874 10800.00000 0 2626642.199 -11468262.858 -22615044.581 10 0 60874 11700.00000 0 5217965.514 -12358498.845 -21674590.477 10 0 60874 12600.00000 0 7603868.910 -13388199.337 -20312321.219 10 0 60874 13500.00000 0 9732783.061 -14511269.187 -18554645.040 10 0 60874 14400.00000 0 11563579.104 -15674102.266 -16435696.706 10 0 60874 15300.00000 0 13067040.250 -16817868.575 -13996676.242 10 0 60874 16200.00000 0 14226835.798 -17881042.936 -11285046.462 10 0 60874 17100.00000 0 15039956.993 -18802068.112 -8353604.803 10 0 60874 18000.00000 0 15516596.918 -19522039.057 -5259447.860 10 0 60874 18900.00000 0 15679480.456 -19987293.836 -2062849.475 10 0 60874 19800.00000 0 15562673.747 -20151800.465 1173924.788 10 0 60874 20700.00000 0 15209924.986 -19979237.593 4387842.396 10 0 60874 21600.00000 0 14672608.410 -19444680.043 7516342.614 10 0 60874 22500.00000 0 14007360.222 -18535817.212 10498563.871 10 0 60874 23400.00000 0 13273508.198 -17253652.477 13276534.641 10 0 60874 24300.00000 0 12530405.181 -15612654.016 15796303.863 10 0 60874 25200.00000 0 11834780.302 -13640350.846 18008988.533 10 0 60874 26100.00000 0 11238220.472 -11376391.460 19871718.105 10 0 60874 27000.00000 0 10784888.581 -8871104.937 21348457.929 10 0 60874 27900.00000 0 10509574.223 -6183625.083 22410696.617 10 0 60874 28800.00000 0 10436158.292 -3379656.102 23037985.199 10 0 60874 29700.00000 0 10576554.956 -528972.749 23218319.014 10 0 60874 30600.00000 0 10930174.324 2297241.596 22948356.274 10 0 60874 31500.00000 0 11483927.188 5029109.212 22233470.334 10 0 60874 32400.00000 0 12212770.717 7600713.324 21087635.669 10 0 60874 33300.00000 0 13080771.534 9952585.842 19533150.441 10 0 60874 34200.00000 0 14042641.281 12033926.082 17600201.349 10 0 60874 35100.00000 0 15045680.351 13804460.268 15326279.156 10 0 60874 36000.00000 0 16032048.591 15235866.438 12755455.840 10 0 60874 36900.00000 0 16941268.329 16312707.134 9937536.771 10 0 60874 37800.00000 0 17712855.316 17032832.532 6927103.584 10 0 60874 38700.00000 0 18288967.807 17407238.370 3782465.419 10 0 60874 39600.00000 0 18616962.987 17459385.472 564538.092 10 0 60874 40500.00000 0 18651753.603 17224009.909 -2664327.864 10 0 60874 41400.00000 0 18357865.675 16745473.952 -5841548.199 10 0 60874 42300.00000 0 17711110.368 16075727.073 -8905512.151 10 0 60874 43200.00000 0 16699798.925 15271962.545 -11796772.829 10 0 60874 44100.00000 0 15325448.406 14394067.994 -14459197.932 10 0 60874 45000.00000 0 13602947.083 13501976.931 -16841058.567 10 0 60874 45900.00000 0 11560170.706 12653032.595 -18896035.108 10 0 60874 46800.00000 0 9237063.729 11899475.052 -20584120.527 10 0 60874 47700.00000 0 6684221.890 11286157.456 -21872403.485 10 0 60874 48600.00000 0 3961033.333 10848587.988 -22735715.770 10 0 60874 49500.00000 0 1133453.995 10611380.438 -23157131.094 10 0 60874 50400.00000 0 -1728491.572 10587179.432 -23128305.056 10 0 60874 51300.00000 0 -4553381.116 10776106.491 -22649648.977 10 0 60874 52200.00000 0 -7271127.030 11165751.249 -21730333.433 10 0 60874 53100.00000 0 -9815656.851 11731709.260 -20388120.521 10 0 60874 54000.00000 0 -12127430.469 12438644.636 -18649027.212 10 0 60874 54900.00000 0 -14155689.084 13241833.443 -16546825.468 10 0 60874 55800.00000 0 -15860341.840 14089123.109 -14122388.175 10 0 60874 56700.00000 0 -17213411.143 14923225.170 -11422893.185 10 0 60874 57600.00000 0 -18199976.104 15684244.101 -8500900.862 10 0 60874 58500.00000 0 -18818574.771 16312334.541 -5413323.385 10 0 60874 59400.00000 0 -19081048.745 16750373.382 -2220306.521 10 0 60874 60300.00000 0 -19011837.744 16946532.395 1015953.370 10 0 60874 61200.00000 0 -18646755.136 16856641.263 4232432.726 10 0 60874 62100.00000 0 -18031297.670 16446239.730 7366519.453 10 0 60874 63000.00000 0 -17218562.555 15692231.052 10357241.395 10 0 60874 63900.00000 0 -16266861.624 14584066.161 13146459.536 10 0 60874 64800.00000 0 -15237134.990 13124408.162 15680001.858 10 0 60874 65700.00000 0 -14190274.662 11329249.050 17908715.432 10 0 60874 66600.00000 0 -13184471.928 9227473.865 19789416.269 10 0 60874 67500.00000 0 -12272700.625 6859890.836 21285719.009 10 0 60874 68400.00000 0 -11500442.052 4277768.364 22368731.249 10 0 60874 69300.00000 0 -10903746.541 1540940.103 23017600.186 10 0 60874 70200.00000 0 -10507711.979 -1284442.915 23219902.370 10 0 60874 71100.00000 0 -10325441.815 -4128420.029 22971870.377 10 0 60874 72000.00000 0 -10357524.782 -6919885.018 22278453.236 10 0 60874 72900.00000 0 -10592056.770 -9589297.019 21153210.506 10 0 60874 73800.00000 0 -11005202.736 -12071327.210 19618042.708 10 0 60874 74700.00000 0 -11562274.259 -14307333.006 17702763.698 10 0 60874 75600.00000 0 -12219277.036 -16247558.819 15444523.242 10 0 60874 76500.00000 0 -12924863.300 -17852973.728 12887090.605 10 0 60874 77400.00000 0 -13622607.391 -19096671.201 10080012.479 10 0 60874 78300.00000 0 -14253509.311 -19964774.056 7077660.785 10 0 60874 79200.00000 0 -14758621.567 -20456808.071 3938187.955 10 0 60874 80100.00000 0 -15081689.292 -20585529.476 722409.134 10 0 60874 81000.00000 0 -15171692.919 -20376214.094 -2507367.775 10 0 60874 81900.00000 0 -14985186.450 -19865438.148 -5688542.211 10 0 60874 82800.00000 0 -14488332.630 -19099401.851 -8759428.380 10 0 60874 83700.00000 0 -13658548.738 -18131865.965 -11660446.977 10 0 60874 84600.00000 0 -12485692.689 -17021787.673 -14335278.345 10 0 60874 85500.00000 0 -10972738.151 -15830754.761 -16731954.790 10 0 60875 0.00000 0 -9135908.730 -14620325.715 -18803870.772 10 0 60875 900.00000 0 -7004262.502 -13449386.650 -20510692.356 10 0 60875 1800.00000 0 -4618744.640 -12371637.654 -21819145.438 10 0 60875 2700.00000 0 -2030742.279 -11433312.092 -22703670.898 10 0 60875 3600.00000 0 699797.788 -10671226.564 -23146930.743 10 0 60875 4500.00000 0 3506612.834 -10111243.265 -23140156.041 10 0 60875 5400.00000 0 6319637.266 -9767210.035 -22683329.029 10 0 60875 6300.00000 0 9067681.557 -9640423.365 -21785195.036 10 0 60875 7200.00000 0 11681166.168 -9719637.643 -20463103.095 10 0 60875 8100.00000 0 14094796.937 -9981620.896 -18742677.431 10 0 60875 9000.00000 0 16250070.408 -10392234.089 -16657325.317 10 0 60875 9900.00000 0 18097504.300 -10907988.691 -14247590.226 10 0 60875 10800.00000 0 19598499.614 -11478016.687 -11560362.420 10 0 60875 11700.00000 0 20726756.125 -12046369.342 -8647962.215 10 0 60875 12600.00000 0 21469181.799 -12554546.666 -5567114.077 10 0 60875 13500.00000 0 21826258.112 -12944149.400 -2377832.161 10 0 60875 14400.00000 0 21811846.553 -13159539.924 857760.021 10 0 60875 15300.00000 0 21452445.343 -13150397.954 4076651.553 10 0 60875 16200.00000 0 20785929.073 -12874061.411 7216182.527 10 0 60875 17100.00000 0 19859825.925 -12297552.178 10215273.510 10 0 60875 18000.00000 0 18729206.870 -11399200.014 13015620.942 10 0 60875 18900.00000 0 17454277.504 -10169795.431 15562834.371 10 0 60875 19800.00000 0 16097775.481 -8613222.504 17807492.986 10 0 60875 20700.00000 0 14722284.232 -6746544.917 19706100.884 10 0 60875 21600.00000 0 13387576.581 -4599541.698 21221923.032 10 0 60875 22500.00000 0 12148099.931 -2213712.242 22325686.545 10 0 60875 23400.00000 0 11050708.099 359207.625 22996134.849 10 0 60875 24300.00000 0 10132733.880 3059156.689 23220425.329 10 0 60875 25200.00000 0 9420481.733 5820007.195 22994364.126 10 0 60875 26100.00000 0 8928202.062 8572078.107 22322474.796 10 0 60875 27000.00000 0 8657588.332 11244799.304 21217900.519 10 0 60875 27900.00000 0 8597816.480 13769417.291 19702142.463 10 0 60875 28800.00000 0 8726123.590 16081631.502 17804639.739 10 0 60875 29700.00000 0 9008900.570 18124053.299 15562199.063 10 0 60875 30600.00000 0 9403252.359 19848387.105 13018284.836 10 0 60875 31500.00000 0 9858959.918 21217244.411 10222182.836 10 0 60875 32400.00000 0 10320761.627 22205516.519 7228052.971 10 0 60875 33300.00000 0 10730858.457 22801249.829 4093888.605 10 0 60875 34200.00000 0 11031537.829 23005987.955 880401.834 10 0 60875 35100.00000 0 11167806.028 22834566.827 -2350144.435 10 0 60875 36000.00000 0 11089918.439 22314371.568 -5535135.641 10 0 60875 36900.00000 0 10755700.907 21484086.192 -8612813.153 10 0 60875 37800.00000 0 10132563.954 20391988.261 -11523467.289 10 0 60875 38700.00000 0 9199124.212 19093859.621 -14210592.881 10 0 60875 39600.00000 0 7946363.548 17650600.373 -16621985.072 10 0 60875 40500.00000 0 6378275.541 16125645.728 -18710754.183 10 0 60875 41400.00000 0 4511970.170 14582293.658 -20436239.886 10 0 60875 42300.00000 0 2377230.149 13081055.176 -21764806.804 10 0 60875 43200.00000 0 15535.165 11677138.178 -22670505.845 10 0 60875 44100.00000 0 -2521407.448 10418170.371 -23135588.075 10 0 60875 45000.00000 0 -5173566.365 9342256.944 -23150860.585 10 0 60875 45900.00000 0 -7874846.672 8476454.751 -22715876.818 10 0 60875 46800.00000 0 -10555614.223 7835727.410 -21838956.829 10 0 60875 47700.00000 0 -13145379.736 7422425.647 -20537036.199 10 0 60875 48600.00000 0 -15575531.288 7226315.084 -18835345.636 10 0 60875 49500.00000 0 -17782001.399 7225150.570 -16766926.615 10 0 60875 50400.00000 0 -19707757.102 7385772.904 -14371991.786 10 0 60875 51300.00000 0 -21305008.482 7665681.446 -11697142.152 10 0 60875 52200.00000 0 -22537042.891 8015015.724 -8794456.131 10 0 60875 53100.00000 0 -23379607.356 8378861.332 -5720468.517 10 0 60875 54000.00000 0 -23821780.955 8699781.303 -2535059.787 10 0 60875 54900.00000 0 -23866300.710 8920464.413 699721.582 10 0 60875 55800.00000 0 -23529327.804 8986376.681 3920879.603 10 0 60875 56700.00000 0 -22839664.891 8848302.200 7065708.951 10 0 60875 57600.00000 0 -21837458.727 8464664.259 10073025.433 10 0 60875 58500.00000 0 -20572444.297 7803527.336 12884363.558 10 0 60875 59400.00000 0 -19101805.997 6844194.462 15445117.085 10 0 60875 60300.00000 0 -17487747.365 5578331.954 17705599.923 10 0 60875 61200.00000 0 -15794872.792 4010573.853 19622006.731 10 0 60875 62100.00000 0 -14087491.994 2158580.616 21157255.044 10 0 60875 63000.00000 0 -12426960.607 52549.673 22281693.429 10 0 60875 63900.00000 0 -10869168.060 -2265801.564 22973663.095 10 0 60875 64800.00000 0 -9462277.057 -4744737.733 23219903.398 10 0 60875 65700.00000 0 -8244807.872 -7324430.150 23015794.761 10 0 60875 66600.00000 0 -7244145.875 -9939224.349 22365435.538 10 0 60875 67500.00000 0 -6475532.805 -12520156.919 21281552.385 10 0 60875 68400.00000 0 -5941582.042 -14997618.070 19785246.575 10 0 60875 69300.00000 0 -5632336.389 -17304050.513 17905581.545 10 0 60875 70200.00000 0 -5525864.462 -19376573.856 15679019.685 10 0 60875 71100.00000 0 -5589369.551 -21159426.889 13148718.932 10 0 60875 72000.00000 0 -5780763.724 -22606127.455 10363702.273 10 0 60875 72900.00000 0 -6050640.689 -23681261.202 7377915.492 10 0 60875 73800.00000 0 -6344564.447 -24361825.628 4249190.580 10 0 60875 74700.00000 0 -6605577.579 -24638073.997 1038134.114 10 0 60875 75600.00000 0 -6776823.752 -24513824.270 -2193038.618 10 0 60875 76500.00000 0 -6804174.120 -24006220.227 -5381701.811 10 0 60875 77400.00000 0 -6638746.922 -23144954.570 -8466026.884 10 0 60875 78300.00000 0 -6239213.789 -21970986.191 -11386176.764 10 0 60875 79200.00000 0 -5573794.957 -20534804.745 -14085463.806 10 0 60875 80100.00000 0 -4621858.330 -18894314.638 -16511449.008 10 0 60875 81000.00000 0 -3375053.718 -17112426.402 -18616961.270 10 0 60875 81900.00000 0 -1837932.776 -15254455.731 -20361016.890 10 0 60875 82800.00000 0 -28026.575 -13385438.564 -21709621.314 10 0 60875 83700.00000 0 2024624.729 -11567474.246 -22636437.337 10 0 60875 84600.00000 0 4278472.745 -9857207.685 -23123306.434 10 0 60875 85500.00000 0 6681952.638 -8303555.834 -23160612.552 10 0 60876 0.00000 0 9175405.316 -6945773.853 -22747480.711 10 0 60876 900.00000 0 11693352.871 -5811941.358 -21891805.449 10 0 60876 1800.00000 0 14167030.178 -4917934.234 -20610108.286 10 0 60876 2700.00000 0 16527072.253 -4266922.881 -18927225.372 10 0 60876 3600.00000 0 18706242.163 -3849419.920 -16875830.907 10 0 60876 4500.00000 0 20642086.649 -3643874.505 -14495804.823 10 0 60876 5400.00000 0 22279407.792 -3617787.989 -11833456.561 10 0 60876 6300.00000 0 23572446.546 -3729303.250 -8940619.929 10 0 60876 7200.00000 0 24486685.860 -3929199.568 -5873636.916 10 0 60876 8100.00000 0 25000197.206 -4163207.466 -2692250.899 10 0 60876 9000.00000 0 25104473.596 -4374543.978 541568.292 10 0 60876 9900.00000 0 24804714.149 -4506559.371 3764843.289 10 0 60876 10800.00000 0 24119548.764 -4505381.517 6914827.000 10 0 60876 11700.00000 0 23080215.339 -4322444.327 9930233.922 10 0 60876 12600.00000 0 21729225.363 -3916791.830 12752439.789 10 0 60876 13500.00000 0 20118575.448 -3257059.368 15326625.352 10 0 60876 14400.00000 0 18307581.370 -2323047.483 17602841.594 10 0 60876 15300.00000 0 16360426.874 -1106821.710 19536975.630 10 0 60876 16200.00000 0 14343530.976 386708.170 21091598.983 10 0 60876 17100.00000 0 12322844.535 2139753.688 22236682.623 10 0 60876 18000.00000 0 10361189.144 4122159.400 22950166.013 10 0 60876 18900.00000 0 8515748.933 6292439.210 23218370.474 10 0 60876 19800.00000 0 6835818.831 8599294.128 23036250.229 10 0 60876 20700.00000 0 5360901.672 10983548.400 22407477.495 10 0 60876 21600.00000 0 4119231.633 13380423.905 21344361.038 10 0 60876 22500.00000 0 3126783.547 15722058.994 19867600.483 10 0 60876 23400.00000 0 2386807.455 17940167.960 18005881.526 10 0 60876 24300.00000 0 1889905.992 19968731.728 15795319.903 10 0 60876 25200.00000 0 1614649.808 21746609.065 13278764.581 10 0 60876 26100.00000 0 1528704.073 23219960.756 10504973.117 10 0 60876 27000.00000 0 1590418.048 24344386.878 7527674.451 10 0 60876 27900.00000 0 1750810.503 25086688.864 4404536.437 10 0 60876 28800.00000 0 1955867.391 25426183.420 1196057.371 10 0 60876 29700.00000 0 2149055.091 25355513.680 -2035597.794 10 0 60876 30600.00000 0 2273943.474 24880923.660 -5227794.623 10 0 60876 31500.00000 0 2276828.247 24021984.241 -8318637.036 10 0 60876 32400.00000 0 2109241.947 22810781.603 -11248162.805 10 0 60876 33300.00000 0 1730247.270 21290601.351 -13959503.797 10 0 60876 34200.00000 0 1108415.412 19514162.584 -16399988.575 10 0 60876 35100.00000 0 223404.967 17541474.937 -18522166.055 10 0 60876 36000.00000 0 -932926.542 15437407.361 -20284730.352 10 0 60876 36900.00000 0 -2355927.001 13269069.569 -21653328.679 10 0 60876 37800.00000 0 -4028097.050 11103114.940 -22601236.437 10 0 60876 38700.00000 0 -5919584.837 9003077.098 -23109885.986 10 0 60876 39600.00000 0 -7989209.720 7026851.153 -23169238.340 10 0 60876 40500.00000 0 -10185974.212 5224424.687 -22777989.887 10 0 60876 41400.00000 0 -12451002.804 3635953.282 -21943609.349 10 0 60876 42300.00000 0 -14719828.120 2290261.175 -20682203.337 10 0 60876 43200.00000 0 -16924929.826 1203829.850 -19018212.244 10 0 60876 44100.00000 0 -18998420.729 380316.944 -16983941.472 10 0 60876 45000.00000 0 -20874767.589 -189374.476 -14618936.413 10 0 60876 45900.00000 0 -22493432.459 -526479.610 -11969212.905 10 0 60876 46800.00000 0 -23801323.110 -663235.187 -9086357.962 10 0 60876 47700.00000 0 -24754948.887 -641271.256 -6026518.550 10 0 60876 48600.00000 0 -25322190.481 -509600.734 -2849298.669 10 0 60876 49500.00000 0 -25483608.604 -322293.332 383412.840 10 0 60876 50400.00000 0 -25233236.308 -135933.972 3608659.596 10 0 60876 51300.00000 0 -24578821.462 -6975.169 6763655.146 10 0 60876 52200.00000 0 -23541509.678 10902.795 9787015.146 10 0 60876 53100.00000 0 -22154981.839 -130689.396 12619959.038 10 0 60876 54000.00000 0 -20464083.601 -472560.266 15207457.010 10 0 60876 54900.00000 0 -18523005.651 -1045974.285 17499299.462 10 0 60876 55800.00000 0 -16393092.298 -1871098.552 19451068.109 10 0 60876 56700.00000 0 -14140371.167 -2955925.056 21024990.328 10 0 60876 57600.00000 0 -11832907.980 -4295713.810 22190660.996 10 0 60876 58500.00000 0 -9538097.082 -5872980.021 22925618.929 10 0 60876 59400.00000 0 -7320000.371 -7658025.608 23215768.084 10 0 60876 60300.00000 0 -5236844.593 -9609992.728 23055636.721 10 0 60876 61200.00000 0 -3338779.870 -11678395.340 22448470.746 10 0 60876 62100.00000 0 -1665990.976 -13805065.216 21406160.490 10 0 60876 63000.00000 0 -247237.964 -15926431.845 19949003.041 10 0 60876 63900.00000 0 901115.124 -17976042.035 18105305.151 10 0 60876 64800.00000 0 1775545.030 -19887215.212 15910834.419 10 0 60876 65700.00000 0 2385270.809 -21595724.906 13408129.093 10 0 60876 66600.00000 0 2751617.716 -23042395.684 10645679.327 10 0 60876 67500.00000 0 2906871.280 -24175508.204 7676995.051 10 0 60876 68400.00000 0 2892670.387 -24952912.802 4559577.670 10 0 60876 69300.00000 0 2758007.285 -25343763.823 1353814.764 10 0 60876 70200.00000 0 2556918.808 -25329802.416 -1878181.561 10 0 60876 71100.00000 0 2345966.016 -24906134.038 -5073770.813 10 0 60876 72000.00000 0 2181608.383 -24081467.697 -8170992.047 10 0 60876 72900.00000 0 2117583.269 -22877806.243 -11109760.547 10 0 60876 73800.00000 0 2202401.322 -21329599.760 -13833030.355 10 0 60876 74700.00000 0 2477063.872 -19482396.428 -16287900.216 10 0 60876 75600.00000 0 2973099.278 -17391046.181 -18426641.561 10 0 60876 76500.00000 0 3711002.008 -15117531.094 -20207628.594 10 0 60876 77400.00000 0 4699141.644 -12728512.133 -21596152.272 10 0 60876 78300.00000 0 5933189.404 -10292693.753 -22565102.174 10 0 60876 79200.00000 0 7396088.272 -7878115.560 -23095502.693 10 0 60876 80100.00000 0 9058570.094 -5549483.504 -23176892.581 10 0 60876 81000.00000 0 10880200.024 -3365651.540 -22807539.869 10 0 60876 81900.00000 0 12810906.518 -1377358.659 -21994487.161 10 0 60876 82800.00000 0 14792934.387 374684.291 -20753425.543 10 0 60876 83700.00000 0 16763140.339 1861278.051 -19108398.637 10 0 60876 84600.00000 0 18655535.552 3065726.654 -17091341.642 10 0 60876 85500.00000 0 20403968.967 3984295.963 -14741463.646 10 0 60877 0.00000 0 21944838.377 4626120.135 -12104485.008 10 0 60877 900.00000 0 23219715.614 5012560.857 -9231742.973 10 0 60877 1800.00000 0 24177772.691 5176046.499 -6179186.852 10 0 60877 2700.00000 0 24777908.498 5158442.564 -3006278.133 10 0 60877 3600.00000 0 24990483.565 5009022.926 225178.610 10 0 60877 4500.00000 0 24798590.008 4782129.818 3452251.368 10 0 60877 5400.00000 0 24198802.640 4534623.381 6612117.690 10 0 60877 6300.00000 0 23201379.631 4323230.544 9643297.591 10 0 60877 7200.00000 0 21829904.581 4201907.186 12486857.203 10 0 60877 8100.00000 0 20120385.818 4219326.523 15087558.849 10 0 60877 9000.00000 0 18119851.699 4416600.948 17394934.700 10 0 60877 9900.00000 0 15884501.815 4825334.136 19364263.073 10 0 60877 10800.00000 0 13477492.453 5466085.775 20957428.822 10 0 60877 11700.00000 0 10966449.541 6347313.484 22143651.956 10 0 60877 12600.00000 0 8420813.175 7464836.066 22900071.450 10 0 60877 13500.00000 0 5909124.208 8801840.238 23212174.250 10 0 60877 14400.00000 0 3496365.111 10329430.166 23074062.530 10 0 60877 15300.00000 0 1241464.563 12007696.605 22488555.271 10 0 60877 16200.00000 0 -804932.142 13787260.958 21467123.241 10 0 60877 17100.00000 0 -2602336.096 15611230.059 20029659.395 10 0 60877 18000.00000 0 -4121855.348 17417480.607 18204089.509 10 0 60877 18900.00000 0 -5347145.199 19141178.700 16025830.665 10 0 60877 19800.00000 0 -6274830.586 20717430.215 13537107.745 10 0 60877 20700.00000 0 -6914384.668 22083952.324 10786140.680 10 0 60877 21600.00000 0 -7287470.076 23183655.454 7826217.464 10 0 60877 22500.00000 0 -7426771.492 23967028.515 4714670.098 10 0 60877 23400.00000 0 -7374369.200 24394228.106 1511772.514 10 0 60877 24300.00000 0 -7179722.295 24436784.483 -1720418.905 10 0 60877 25200.00000 0 -6897346.540 24078852.710 -4919260.384 10 0 60877 26100.00000 0 -6584284.626 23317956.126 -8022728.716 10 0 60877 27000.00000 0 -6297475.383 22165190.204 -10970619.092 10 0 60877 27900.00000 0 -6091132.867 20644877.207 -13705709.882 10 0 60877 28800.00000 0 -6014246.004 18793684.861 -16174871.869 10 0 60877 29700.00000 0 -6108304.627 16659244.527 -18330100.565 10 0 60877 30600.00000 0 -6405348.422 14298325.211 -20129451.526 10 0 60877 31500.00000 0 -6926422.028 11774638.321 -21537860.420 10 0 60877 32400.00000 0 -7680502.626 9156363.542 -22527831.701 10 0 60877 33300.00000 0 -8663946.766 6513497.903 -23079982.189 10 0 60877 34200.00000 0 -9860481.460 3915137.733 -23183428.466 10 0 60877 35100.00000 0 -11241741.797 1426806.151 -22836009.955 10 0 60877 36000.00000 0 -12768334.360 -892062.940 -22044342.531 10 0 60877 36900.00000 0 -14391383.404 -2990379.607 -20823700.759 10 0 60877 37800.00000 0 -16054496.245 -4827297.389 -19197730.101 10 0 60877 38700.00000 0 -17696066.239 -6373678.251 -17197993.832 10 0 60877 39600.00000 0 -19251817.046 -7613061.766 -14863362.729 10 0 60877 40500.00000 0 -20657481.116 -8542098.173 -12239258.919 10 0 60877 41400.00000 0 -21851499.412 -9170427.686 -9376768.457 10 0 60877 42300.00000 0 -22777627.736 -9520011.859 -6331640.112 10 0 60877 43200.00000 0 -23387338.734 -9623946.355 -3163190.383 10 0 60877 44100.00000 0 -23641917.400 -9524806.695 66862.931 10 0 60877 45000.00000 0 -23514160.658 -9272598.599 3295614.695 10 0 60877 45900.00000 0 -22989608.665 -8922401.439 6460208.947 10 0 60877 46800.00000 0 -22067255.481 -8531806.419 9499072.565 10 0 60877 47700.00000 0 -20759709.143 -8158259.641 12353120.837 10 0 60877 48600.00000 0 -19092794.756 -7856423.965 14966910.604 10 0 60877 49500.00000 0 -17104617.840 -7675672.357 17289718.052 10 0 60877 50400.00000 0 -14844128.015 -7657819.295 19276520.111 10 0 60877 51300.00000 0 -12369243.926 -7835186.197 20888860.819 10 0 60877 52200.00000 0 -9744618.358 -8229082.290 22095586.663 10 0 60877 53100.00000 0 -7039137.153 -8848764.340 22873437.702 10 0 60877 54000.00000 0 -4323256.006 -9690918.387 23207484.372 10 0 60877 54900.00000 0 -1666285.385 -10739684.545 23091402.842 10 0 60877 55800.00000 0 866264.568 -11967223.292 22527584.840 10 0 60877 56700.00000 0 3215170.321 -13334799.167 21527080.895 10 0 60877 57600.00000 0 5329710.946 -14794336.505 20109378.810 10 0 60877 58500.00000 0 7169523.705 -16290382.300 18302022.077 10 0 60877 59400.00000 0 8706024.156 -17762394.662 16140075.657 10 0 60877 60300.00000 0 9923333.687 -19147261.853 13665449.196 10 0 60877 61200.00000 0 10818677.618 -20381947.327 10926090.269 10 0 60877 62100.00000 0 11402238.814 -21406150.927 7975062.572 10 0 60877 63000.00000 0 11696474.164 -22164875.529 4869526.142 10 0 60877 63900.00000 0 11734923.413 -22610792.106 1669638.549 10 0 60877 64800.00000 0 11560560.896 -22706304.353 -1562602.329 10 0 60877 65700.00000 0 11223759.649 -22425226.184 -4764552.239 10 0 60877 66600.00000 0 10779953.613 -21754001.316 -7874128.495 10 0 60877 67500.00000 0 10287096.271 -20692412.977 -10831008.909 10 0 60877 68400.00000 0 9803022.696 -19253752.872 -13577798.780 10 0 60877 69300.00000 0 9382826.159 -17464440.920 -16061143.394 10 0 60877 70200.00000 0 9076359.987 -15363110.120 -18232764.597 10 0 60877 71100.00000 0 8925970.295 -12999193.134 -20050401.303 10 0 60877 72000.00000 0 8964555.730 -10431067.963 -21478635.568 10 0 60877 72900.00000 0 9214036.815 -7723838.553 -22489588.003 10 0 60877 73800.00000 0 9684300.499 -4946841.412 -23063468.703 10 0 60877 74700.00000 0 10372665.704 -2170981.017 -23188972.471 10 0 60877 75600.00000 0 11263893.875 533995.946 -22863510.058 10 0 60877 76500.00000 0 12330745.696 3102174.611 -22093270.119 10 0 60877 77400.00000 0 13535062.018 5473983.157 -20893109.796 10 0 60877 78300.00000 0 14829324.848 7598436.729 -19286275.143 10 0 60877 79200.00000 0 16158633.695 9435020.441 -17303955.912 10 0 60877 80100.00000 0 17463014.605 10955132.756 -14984682.634 10 0 60877 81000.00000 0 18679964.738 12143028.971 -12373577.246 10 0 60877 81900.00000 0 19747124.939 12996225.541 -9521471.623 10 0 60877 82800.00000 0 20604966.732 13525348.843 -6483911.414 10 0 60877 83700.00000 0 21199379.449 13753435.679 -3320065.155 10 0 60877 84600.00000 0 21484046.915 13714716.270 -91560.773 10 0 60877 85500.00000 0 21422512.253 13452932.705 3138726.617 99